Weather History for Oakland, CA

Change the Weather History Date:

Friday, May 17, 2013

  Actual Average Record
Temperature  
Mean Temperature 61 °F 59 °F  
Max Temperature 67 °F 68 °F 91 °F (2009)
Min Temperature 54 °F 51 °F 47 °F (2003)
Degree Days  
Heating Degree Days 4 6  
Month to date heating degree days 40 105  
Since 1 July heating degree days 2308 2691  
Cooling Degree Days 0 0  
Month to date cooling degree days 26 0  
Year to date cooling degree days 39 6  
Growing Degree Days 10 (Base 50)    
Moisture  
Dew Point 53 °F    
Average Humidity 78    
Maximum Humidity 100    
Minimum Humidity 56    
Precipitation  
Precipitation 0.00 in 0.02 in 0.12 in (1957)
Month to date precipitation T 0.49  
Year to date precipitation 2.63 12.85  
Since 1 July precipitation 13.62 20.44  
Sea Level Pressure  
Sea Level Pressure 30.06 in    
Wind  
Wind Speed 15 mph (West)    
Max Wind Speed 23 mph    
Max Gust Speed 29 mph    
Visibility 10 miles    
Events      
T = Trace of Precipitation, MM = Missing Value Source: NWS Daily Summary

Daily Weather History Graph

Daily Weather History Graph

Search for Another Location

Airport:

Trip Planner

Search our weather history database for the weather conditions in past years. The results will help you decide how hot, cold, wet, or windy it might be!

Date:

Astronomy

May. 17, 2013 Rise Set
Actual Time 5:57 AM PDT 8:13 PM PDT
Civil Twilight 5:27 AM PDT 8:43 PM PDT
Nautical Twilight 4:51 AM PDT 9:19 PM PDT
Astronomical Twilight 4:11 AM PDT 9:59 PM PDT
Moon 12:31 PM PDT (5/17) 1:12 AM PDT (5/17)
Length of Visible Light 15h 15m
Length of Day
14h 16m
Waxing Crescent, 46% of the Moon is Illuminated
May 17
Waxing Crescent
May 17
First Quarter
May 24
Full
May 31
Last Quarter
Jun 8
New

Hourly Weather History & Observations

Time (PDT) Temp. Dew Point Humidity Pressure Visibility Wind Dir Wind Speed Gust Speed Precip Events Conditions
12:53 AM 55.9 °F 55.0 °F 97% 30.03 in 10.0 mi West 13.8 mph - N/A   Scattered Clouds
1:53 AM 55.9 °F 55.0 °F 97% 30.02 in 10.0 mi West 12.7 mph - N/A   Scattered Clouds
2:53 AM 55.0 °F 54.0 °F 96% 30.01 in 10.0 mi West 12.7 mph - N/A   Scattered Clouds
3:53 AM 55.0 °F 55.0 °F 100% 30.01 in 10.0 mi West 11.5 mph - N/A   Partly Cloudy
4:53 AM 55.4 °F 53.6 °F 94% 30.00 in 10.0 mi West 12.7 mph - N/A   Partly Cloudy
5:53 AM 54.0 °F 54.0 °F 100% 30.01 in 10.0 mi West 12.7 mph - N/A   Partly Cloudy
6:53 AM 55.0 °F 53.1 °F 93% 30.02 in 10.0 mi West 12.7 mph - N/A   Scattered Clouds
7:29 AM 55.4 °F 53.6 °F 94% 30.03 in 10.0 mi West 13.8 mph - N/A   Mostly Cloudy
7:53 AM 55.9 °F 54.0 °F 93% 30.04 in 10.0 mi West 9.2 mph - N/A   Mostly Cloudy
8:53 AM 57.0 °F 53.1 °F 87% 30.05 in 10.0 mi WSW 11.5 mph - N/A   Mostly Cloudy
9:53 AM 59.0 °F 53.1 °F 81% 30.05 in 10.0 mi WSW 9.2 mph - N/A   Mostly Cloudy
10:20 AM 60.8 °F 53.6 °F 77% 30.06 in 10.0 mi West 11.5 mph - N/A   Scattered Clouds
10:53 AM 61.0 °F 54.0 °F 78% 30.07 in 10.0 mi West 12.7 mph - N/A   Scattered Clouds
11:53 AM 62.6 °F 55.4 °F 77% 30.07 in 10.0 mi West 13.8 mph - N/A   Partly Cloudy
12:53 PM 64.0 °F 53.1 °F 67% 30.07 in 10.0 mi West 17.3 mph - N/A   Partly Cloudy
1:53 PM 66.0 °F 52.0 °F 60% 30.08 in 10.0 mi WSW 17.3 mph - N/A   Partly Cloudy
2:53 PM 66.0 °F 51.1 °F 59% 30.07 in 10.0 mi West 16.1 mph - N/A   Partly Cloudy
3:53 PM 64.9 °F 48.9 °F 56% 30.07 in 10.0 mi West 21.9 mph - N/A   Scattered Clouds
4:53 PM 64.9 °F 48.0 °F 54% 30.07 in 10.0 mi West 21.9 mph - N/A   Scattered Clouds
5:53 PM 62.1 °F 48.9 °F 62% 30.06 in 10.0 mi WSW 17.3 mph - N/A   Scattered Clouds
6:53 PM 61.0 °F 48.9 °F 64% 30.08 in 10.0 mi West 19.6 mph 23.0 mph N/A   Scattered Clouds
7:53 PM 59.0 °F 52.0 °F 78% 30.08 in 10.0 mi West 20.7 mph - N/A   Scattered Clouds
8:53 PM 57.0 °F 52.0 °F 83% 30.10 in 10.0 mi West 13.8 mph - N/A   Scattered Clouds
9:53 PM 55.9 °F 53.1 °F 90% 30.11 in 10.0 mi West 12.7 mph - N/A   Scattered Clouds
10:53 PM 55.9 °F 53.1 °F 90% 30.12 in 10.0 mi West 12.7 mph - N/A   Scattered Clouds
11:35 PM 55.4 °F 53.6 °F 94% 30.11 in 10.0 mi West 13.8 mph - N/A   Mostly Cloudy
11:53 PM 55.9 °F 53.1 °F 90% 30.11 in 10.0 mi West 13.8 mph - N/A   Mostly Cloudy